Content
SEND FEEDBACK

Daily
Averages
Monthly
Summary
United States of America

BUFFALO, OKLAHOMA


Home > North America > United States > Oklahoma
Elevation: 1810 feet     Latitude: 36 50N     Longitude: 099 37W

WEATHER
 
SELECT A DAY
Number of Records: 44,235;   Date Range: 9/1/12 - 9/16/14
 
SHARE

PRINT THIS DATA

[ ← Previous Day ]
WEATHER ALMANAC - JANUARY 24, 2013
[ Next Day → ]
[ °C ]   °F
Weather ElementAverageHighLow
Temperature30.4 °F35.6 °F (12:35 am)26.6 °F (9:15 pm)
Dewpoint21 °F28.4 °F (12:35 am)17.6 °F (8:55 am)
Humidity68.5 %86 % (11:35 pm)60 % (10:15 am)
Barometer30.20 in30.30 in (10:15 am)30.11 in (4:35 pm)
Wind Speed7.8 mph15 mph (5:15 am)
Wind Gust20.7 mph (5:15 am)
Weather ElementAverage
Visibility10 mi
Wind DirectionENE (65.9 °)

Weather ElementTotal
Precipitation---
Heating Degree Days33.9 (Base 65)
Averaged from 70 records on January 24, 2013
WEATHER CONDITIONS BREAKOUT
WIND DIRECTION BREAKOUT
WEATHER BY HOUR - JANUARY 24, 2013
[ °C ]   °F
Local TimeTemperatureDewpointHumidityBarometerVisibilityWind DirectionWind SpeedGust SpeedPrecipitationEventsConditions
12:35 AM35.6 °F28.4 °F75 %30.24 in10.0 miENE (60°)9.2 mphClear
12:55 AM35.6 °F26.6 °F70 %30.26 in10.0 miNE (50°)11.5 mphClear
1:15 AM33.8 °F26.6 °F75 %30.25 in10.0 miNE (50°)11.5 mphClear
1:35 AM33.8 °F24.8 °F70 %30.24 in10.0 miENE (60°)12.7 mphClear
1:55 AM33.8 °F24.8 °F70 %30.25 in10.0 miENE (60°)13.8 mphClear
2:15 AM33.8 °F23.0 °F65 %30.26 in10.0 miENE (60°)13.8 mphClear
2:35 AM32.0 °F23.0 °F69 %30.25 in10.0 miENE (60°)12.7 mphClear
2:55 AM32.0 °F23.0 °F69 %30.25 in10.0 miENE (60°)13.8 mphClear
3:15 AM32.0 °F23.0 °F69 %30.25 in10.0 miENE (60°)11.5 mphClear
3:35 AM32.0 °F23.0 °F69 %30.26 in10.0 miENE (60°)13.8 mph19.6 mphClear
3:55 AM32.0 °F23.0 °F69 %30.25 in10.0 miENE (60°)12.7 mphClear
4:15 AM30.2 °F23.0 °F75 %30.25 in10.0 miENE (60°)11.5 mphClear
4:55 AM30.2 °F21.2 °F69 %30.26 in10.0 miNE (50°)13.8 mphClear
5:15 AM28.4 °F21.2 °F74 %30.24 in10.0 miENE (60°)15.0 mph20.7 mphClear
5:35 AM28.4 °F19.4 °F69 %30.25 in10.0 miENE (60°)12.7 mphClear
5:55 AM28.4 °F19.4 °F69 %30.24 in10.0 miNE (50°)15.0 mphClear
6:15 AM28.4 °F19.4 °F69 %30.25 in10.0 miNE (40°)10.4 mphClear
6:35 AM28.4 °F19.4 °F69 %30.27 in10.0 miNNE (20°)9.2 mphScattered Clouds
6:55 AM28.4 °F19.4 °F69 %30.27 in10.0 miNNE (30°)10.4 mphMostly Cloudy
7:15 AM28.4 °F19.4 °F69 %30.28 in10.0 miNNE (30°)10.4 mphOvercast
7:35 AM28.4 °F19.4 °F69 %30.28 in10.0 miNNE (30°)11.5 mphOvercast
7:55 AM28.4 °F19.4 °F69 %30.28 in10.0 miNNE (30°)9.2 mphOvercast
8:15 AM28.4 °F19.4 °F69 %30.27 in10.0 miNE (40°)11.5 mphOvercast
8:35 AM28.4 °F19.4 °F69 %30.26 in10.0 miNE (40°)9.2 mphOvercast
8:55 AM28.4 °F17.6 °F64 %30.28 in10.0 miNNE (20°)10.4 mphOvercast
9:15 AM28.4 °F19.4 °F69 %30.28 in10.0 miNorth (10°)8.1 mphOvercast
9:35 AM28.4 °F17.6 °F64 %30.29 in10.0 miNNE (20°)8.1 mphOvercast
9:55 AM28.4 °F17.6 °F64 %30.29 in10.0 miNNE (20°)8.1 mphOvercast
10:15 AM30.2 °F17.6 °F60 %30.30 in10.0 miNNE (30°)5.8 mphOvercast
10:35 AM30.2 °F17.6 °F60 %30.30 in10.0 miNNE (20°)5.8 mphOvercast
10:55 AM30.2 °F17.6 °F60 %30.30 in10.0 miNorth (10°)8.1 mphOvercast
11:15 AM30.2 °F17.6 °F60 %30.28 in10.0 miNNE (30°)8.1 mphOvercast
11:35 AM32.0 °F19.4 °F60 %30.28 in10.0 miNNE (30°)8.1 mphOvercast
11:55 AM32.0 °F19.4 °F60 %30.28 in10.0 miNNE (30°)6.9 mphOvercast
12:15 PM32.0 °F19.4 °F60 %30.26 in10.0 miNNE (30°)6.9 mphOvercast
12:35 PM32.0 °F19.4 °F60 %30.26 in10.0 miNorth (360°)8.1 mphOvercast
12:55 PM32.0 °F19.4 °F60 %30.24 in10.0 miNNE (20°)6.9 mphOvercast
1:15 PM32.0 °F19.4 °F60 %30.21 in10.0 miNNE (30°)8.1 mphOvercast
1:35 PM32.0 °F19.4 °F60 %30.20 in10.0 miNE (40°)4.6 mphOvercast
1:55 PM32.0 °F21.2 °F64 %30.18 in10.0 miNE (50°)8.1 mphOvercast
2:15 PM32.0 °F21.2 °F64 %30.17 in10.0 miNE (50°)4.6 mphOvercast
2:35 PM32.0 °F21.2 °F64 %30.17 in10.0 miNE (50°)6.9 mphOvercast
2:55 PM32.0 °F21.2 °F64 %30.17 in10.0 miNNE (30°)4.6 mphOvercast
3:15 PM32.0 °F21.2 °F64 %30.16 in10.0 miNE (50°)4.6 mphOvercast
3:35 PM32.0 °F21.2 °F64 %30.13 in10.0 miEast (80°)6.9 mphOvercast
3:55 PM32.0 °F21.2 °F64 %30.12 in10.0 miSE (130°)5.8 mphOvercast
4:15 PM32.0 °F23.0 °F69 %30.13 in10.0 miESE (120°)5.8 mphOvercast
4:35 PM32.0 °F23.0 °F69 %30.11 in10.0 miEast (100°)5.8 mphOvercast
4:55 PM32.0 °F23.0 °F69 %30.12 in10.0 miESE (120°)4.6 mphOvercast
5:15 PM32.0 °F21.2 °F64 %30.13 in10.0 miSE (130°)3.5 mphOvercast
5:35 PM32.0 °F21.2 °F64 %30.12 in10.0 miESE (110°)5.8 mphOvercast
5:55 PM32.0 °F21.2 °F64 %30.14 in10.0 miEast (90°)3.5 mphMostly Cloudy
6:15 PM32.0 °F21.2 °F64 %30.14 in10.0 miEast (90°)4.6 mphScattered Clouds
6:35 PM30.2 °F21.2 °F69 %30.14 in10.0 miENE (70°)4.6 mphClear
6:55 PM30.2 °F21.2 °F69 %30.12 in10.0 miEast (100°)6.9 mphClear
7:15 PM30.2 °F21.2 °F69 %30.13 in10.0 miESE (120°)4.6 mphClear
7:35 PM30.2 °F21.2 °F69 %30.11 in10.0 miESE (120°)6.9 mphClear
7:55 PM28.4 °F21.2 °F74 %30.12 in10.0 miESE (110°)4.6 mphClear
8:15 PM28.4 °F21.2 °F74 %30.12 in10.0 miESE (110°)4.6 mphClear
8:35 PM28.4 °F21.2 °F74 %30.12 in10.0 miEast (100°)3.5 mphClear
8:55 PM28.4 °F21.2 °F74 %30.13 in10.0 miEast (100°)3.5 mphClear
9:15 PM26.6 °F21.2 °F80 %30.12 in10.0 miSE (130°)6.9 mphClear
9:35 PM26.6 °F21.2 °F80 %30.12 in10.0 miESE (110°)3.5 mphClear
9:55 PM28.4 °F21.2 °F74 %30.11 in10.0 miEast (100°)4.6 mphClear
10:15 PM28.4 °F21.2 °F74 %30.12 in10.0 miESE (110°)3.5 mphClear
10:35 PM26.6 °F21.2 °F80 %30.12 in10.0 miENE (70°)3.5 mphClear
10:55 PM26.6 °F21.2 °F80 %30.13 in10.0 miEast (80°)3.5 mphClear
11:15 PM26.6 °F21.2 °F80 %30.14 in10.0 miNE (40°)4.6 mphClear
11:35 PM26.6 °F23.0 °F86 %30.13 in10.0 miENE (60°)4.6 mphClear
11:55 PM28.4 °F23.0 °F80 %30.13 in10.0 miCalmClear
Hourly data recorded from KWWR, located miles away from Buffalo, Oklahoma







STORIES FROM OUR PARTNERS